Regional Weather Roundup
Issued by NWS

Home | Current Version | Previous Version | Text Only | Print | Product List | Glossary On
Versions: 1 2 3 4 5 6 7 8 9 10 11 12 13 14 15 16 17 18 19 20 21 22 23 24 25 26 27 28 29 30 31 32 33 34 35 36 37 38 39 40 41 42 43 44 45 46 47 48 49 50
630
ASUS43 KMKX 241411
RWRWI

WISCONSIN REGIONAL WEATHER ROUNDUP
NATIONAL WEATHER SERVICE MILWAUKEE/SULLIVAN WI
900 AM CDT FRI MAR 24 2017

NOTE: "FAIR" INDICATES FEW OR NO CLOUDS BELOW 12,000 FEET WITH NO
SIGNIFICANT WEATHER AND/OR OBSTRUCTIONS TO VISIBILITY.

WIZ001-002-006>008-014>016-023>028-241500-
NORTHWEST WISCONSIN

CITY           SKY/WX    TMP DP  RH WIND       PRES   REMARKS
SUPERIOR ARPT  CLOUDY    35  35 100 CALM      29.99R FOG
ASHLAND        CLOUDY    35  34  96 NW6       29.97R WCI  30
HAYWARD        CLOUDY    36  32  85 N6        29.94R FOG     WCI  31
SIREN          CLOUDY    35  35  98 N7        29.96R FOG     WCI  29
CUMBERLAND     LGT RAIN  34  32  93 N6        29.92S WCI  29
RICE LAKE      DRIZZLE   36  35  98 CALM      29.94R
CHETEK         RAIN      35  35 100 CALM      29.93R VSB 1
LADYSMITH      DRIZZLE   36  35  98 N3        29.93R
EAU CLAIRE     LGT RAIN  38  38 100 N5        29.92R FOG     WCI  34
MENOMONIE      DRIZZLE   38  37  97 N3        29.93R
NEW RICHMOND   DRIZZLE   36  36 100 N8        29.94R WCI  29
OSCEOLA        CLOUDY    36  36 100 N5        29.96F FOG     WCI  32
$$

WIZ003>005-009-010-017-018-241500-
NORTH CENTRAL WISCONSIN

CITY           SKY/WX    TMP DP  RH WIND       PRES   REMARKS
MANITOWISH WTR CLOUDY    32  32 100 N3        29.89R FOG
ARBOR VITAE    MIX PCPN  34  33  96 CALM      29.89R
WOODRUFF       MIX PCPN  34  33  96 CALM      29.89R
RHINELANDER    LGT RAIN  35  34  96 CALM      29.90R FOG
EAGLE RIVER    MIX PCPN  32  32 100 CALM      29.90R
LAND O LAKES   MIX PCPN  33  33  98 N8        29.89F WCI  26
PHILLIPS       DRIZZLE   33  33 100 CALM      29.90R
TOMAHAWK       LGT RAIN  33  32  96 CALM      29.91R VSB 1
MEDFORD        DRIZZLE   34  34  98 N5        29.89R WCI  30
MERRILL        RAIN      34  34 100 N5        29.91R WCI  30
$$

WIZ029-030-035-036-043>047-241500-
CENTRAL WISCONSIN

CITY           SKY/WX    TMP DP  RH WIND       PRES   REMARKS
WAUSAU         LGT RAIN  35  35 100 CALM      29.89R FOG
MOSINEE        NOT AVBL
MARSHFIELD     CLOUDY    37  36  96 N7        29.88R FOG     WCI  32
STEVENS POINT  CLOUDY    33  33 100 NE5       29.90R FOG     WCI  29
WAUPACA        CLOUDY    38  36  91 NE5       29.90F FOG     WCI  35
WAUTOMA        CLOUDY    39  37  92 NE5       29.89S FOG
WISC RAPIDS    CLOUDY    40  39  97 NE6       29.90R FOG
CAMP DOUGLAS   CLOUDY    41  37  87 E3        29.87F
$$

WIZ011>013-019>022-031-037>040-048>050-241500-
NORTHEAST WISCONSIN

CITY           SKY/WX    TMP DP  RH WIND       PRES   REMARKS
ANTIGO         MIX PCPN  34  34 100 NE3       29.90R
SHAWANO        CLOUDY    37  35  93 N3        29.93R FOG
OCONTO         CLOUDY    35  34  97 CALM      29.92S
STURGEON BAY   CLOUDY    37  36  96 W3        29.93R FOG
GREEN BAY      CLOUDY    40  37  89 NE3       29.92R FOG
MANITOWOC      CLOUDY    40  36  86 N6        29.91S
APPLETON       CLOUDY    37  36  93 N7        29.89R FOG     WCI  32
CLINTONVILLE   CLOUDY    36  34  93 CALM      29.92R FOG
OSHKOSH        CLOUDY    41  36  82 CALM      29.90R
$$

WIZ032>034-041-042-053>061-241500-
SOUTHWEST WISCONSIN

CITY           SKY/WX    TMP DP  RH WIND       PRES   REMARKS
LA CROSSE      CLOUDY    42  40  92 N8        29.88R FOG
SPARTA         CLOUDY    41  38  91 CALM      29.89R
VIROQUA        PTSUNNY   44  41  89 CALM      29.84R
BOSCOBEL       MOSUNNY   44  39  82 NE6       29.84F
PRAIRIE DU CHI MOSUNNY   44  38  80 NW3       29.83R
PLATTEVILLE    CLOUDY    50  47  92 SE7       29.85S
$$

WIZ056-057-062-063-064-067-068-241500-
SOUTH CENTRAL WISCONSIN

CITY           SKY/WX    TMP DP  RH WIND       PRES   REMARKS
REEDSBURG      CLOUDY    44  40  86 SE3       29.86R
BARABOO/DELLS  CLOUDY    45  38  77 CALM      29.87R
LONE ROCK      MOSUNNY   47  41  80 E3        29.85S HAZE
MINERAL POINT  CLOUDY    50  46  87 SE9       29.84S
MADISON        CLOUDY    47  41  80 SE5       29.86F
MIDDLETON      CLOUDY    46  41  82 E3        29.87S
WATERTOWN      PTSUNNY   45  42  89 SE6       29.86F
MONROE         CLOUDY    50  45  81 S7        29.86F
JANESVILLE     PTSUNNY   50  45  81 VRB6      29.88S
$$

WIZ051-052-058>065-066-070>072-241500-
SOUTHEAST WISCONSIN

CITY           SKY/WX    TMP DP  RH WIND       PRES   REMARKS
MILWAUKEE      CLOUDY    46  39  76 CALM      29.90F
WAUKESHA       PTSUNNY   48  41  76 SE3       29.90F
MILWAUKEE/TIMM CLOUDY    45  36  70 CALM      29.91S
RACINE         CLOUDY    48  40  73 CALM      29.92F
KENOSHA        CLOUDY    54  44  69 CALM      29.91R
FOND DU LAC    MOSUNNY   44  37  76 E3        29.89R
SHEBOYGAN      CLOUDY    41  37  86 CALM      29.89S FOG
WEST BEND      CLOUDY    43  37  81 CALM      29.88F
JUNEAU         CLOUDY    44  40  86 E5        29.88S
$$

LSZ147-162-241500-
LAKE SUPERIOR

STATION/POSITION TIME  TEMP    WIND        PRES    WAVE
                       AIR SEA DIR/SP/G            HT/PER
                 (UTC) (F)     (DEG/KT/KT) (MB)    (FT/S)
DEVILS ISLAND    1300   33     270/  7/  7 1015.3R
PORT WING        1330   34     260/  3/  4 1015.2R
SAXON HARBOR     1330   33      CALM  /  1 1014.2R
$$

LMZ867-665-643>646-241500-
LAKE MICHIGAN

STATION/POSITION TIME  TEMP    WIND        PRES    WAVE
                       AIR SEA DIR/SP/G            HT/PER
                 (UTC) (F)     (DEG/KT/KT) (MB)    (FT/S)
CHAMBERS ISLAND  1340   34     260/  3/  4 1013.5R
NORTHPORT PIER   1340   35     310/  2/  5 1012.5R
SISTER BAY       1251   36        CALM       N/A
KEWAUNEE LAKESHO 1348   38      CALM  /  2 1012.6R
SHEBOYGAN LAKESH 1400   40     170/  7/  7 1012.6S
PORT WASHINGTON  1340   41     170/  3/  4 1013.5S
MILWAUKEE LAKESH 1350   42      30/  2/  4   N/A
KENOSHA   LAKESH 1400   44      10/  3/  4 1013.2
$$

TC  - TEMPERATURE IN CELSIUS
VSB - VISIBILITY IN STATUTE MILES
WCI - WIND CHILL INDEX
HX  - HEAT INDEX





USA.gov is the U.S. government's official web portal to all federal, state and local government web resources and services.